Location: Newark
(22.3060°N, 114.2134°E)
Time: 02:47:18
(UTC+00:00)

Vanguard 2 - Pass Details

Date: 10 August 2021
Orbit: 552 x 2937 km, 32.9° (Epoch: 21 September)

Event Time Altitude Azimuth Distance (km) Brightness Sun altitude
Rises 23:06:48 0° 295° (WNW) 2,761 9.9 14.4°
Reaches altitude 10° 23:08:47 10° 295° (WNW) 1,942 9.2 14.9°
Maximum altitude 23:13:05 86° 207° (SSW) 735 7.7 15.8°
Drops below altitude 10° 23:19:23 10° 119° (ESE) 2,806 11.4 17.3°
Sets 23:22:47 0° 118° (ESE) 4,124 12.1 18.0°
